When you browse on this site, cookies collect data to enhance your experience and personalize the content and advertising you see.
Visit our Privacy Policy to learn more. By continuing to use the site, you agree to this use of cookies and data.

Hourly Weather Abapo

Today, 13 August, Thursday

Time Temperature Precipitation Wind Pressure Humidity
00:00 +19°C° 0 mm 2 mps 708 mmHg 61%
01:00 +19°C° 0 mm 1 mps 708 mmHg 55%
02:00 +19°C° 0 mm 1 mps 708 mmHg 50%
03:00 +18°C° 0 mm 1 mps 708 mmHg 50%
04:00 +16°C° 0 mm 1 mps 708 mmHg 51%
05:00 +13°C° 0 mm 0 mps 708 mmHg 51%
06:00 +15°C° 0 mm 0 mps 709 mmHg 46%
07:00 +16°C° 0 mm 0 mps 709 mmHg 41%
08:00 +20°C° 0 mm 1 mps 710 mmHg 36%
09:00 +22°C° 0 mm 1 mps 710 mmHg 33%
10:00 +25°C° 0 mm 1 mps 710 mmHg 29%
11:00 +28°C° 0 mm 2 mps 710 mmHg 25%
12:00 +30°C° 0 mm 2 mps 709 mmHg 26%
13:00 +31°C° 0 mm 2 mps 708 mmHg 26%
14:00 +34°C° 0 mm 3 mps 707 mmHg 26%
15:00 +34°C° 0 mm 3 mps 707 mmHg 29%
16:00 +34°C° 0 mm 3 mps 707 mmHg 31%
17:00 +35°C° 0 mm 4 mps 706 mmHg 34%
18:00 +31°C° 0 mm 3 mps 706 mmHg 41%
19:00 +28°C° 0 mm 3 mps 707 mmHg 49%
20:00 +26°C° 0 mm 2 mps 707 mmHg 56%
21:00 +24°C° 0 mm 2 mps 707 mmHg 59%
22:00 +23°C° 0 mm 2 mps 707 mmHg 63%
23:00 +22°C° 0 mm 1 mps 708 mmHg 67%

Tomorrow, 14 August, Friday

Time Temperature Precipitation Wind Pressure Humidity
00:00 +21°C° 0 mm 1 mps 707 mmHg 65%
01:00 +21°C° 0 mm 1 mps 707 mmHg 64%
02:00 +21°C° 0 mm 1 mps 706 mmHg 62%
03:00 +20°C° 0 mm 1 mps 706 mmHg 64%
04:00 +19°C° 0 mm 1 mps 706 mmHg 66%
05:00 +16°C° 0 mm 0 mps 705 mmHg 68%
06:00 +18°C° 0 mm 0 mps 706 mmHg 62%
07:00 +19°C° 0 mm 0 mps 706 mmHg 56%
08:00 +21°C° 0 mm 0 mps 707 mmHg 50%
09:00 +27°C° 0 mm 1 mps 707 mmHg 43%
10:00 +31°C° 0 mm 1 mps 707 mmHg 37%
11:00 +36°C° 0 mm 2 mps 707 mmHg 30%
12:00 +38°C° 0 mm 3 mps 706 mmHg 26%
13:00 +41°C° 0 mm 5 mps 705 mmHg 23%
14:00 +44°C° 0 mm 6 mps 705 mmHg 19%
15:00 +41°C° 0 mm 6 mps 704 mmHg 22%
16:00 +40°C° 0 mm 7 mps 704 mmHg 25%
17:00 +38°C° 0 mm 7 mps 703 mmHg 27%
18:00 +34°C° 0 mm 6 mps 704 mmHg 35%
19:00 +30°C° 0 mm 4 mps 704 mmHg 43%
20:00 +27°C° 0 mm 2 mps 704 mmHg 51%
21:00 +26°C° 0 mm 2 mps 704 mmHg 55%
22:00 +25°C° 0 mm 2 mps 705 mmHg 59%
23:00 +24°C° 0 mm 1 mps 705 mmHg 63%

Day after tomorrow, 15 August, Saturday

Time Temperature Precipitation Wind Pressure Humidity
00:00 +23°C° 0 mm 2 mps 705 mmHg 63%
01:00 +23°C° 0 mm 2 mps 706 mmHg 63%
02:00 +23°C° 0 mm 2 mps 706 mmHg 62%
03:00 +21°C° 0 mm 2 mps 706 mmHg 62%
04:00 +21°C° 0 mm 1 mps 706 mmHg 63%
05:00 +21°C° 0 mm 1 mps 706 mmHg 63%
06:00 +22°C° 0 mm 1 mps 707 mmHg 58%
07:00 +23°C° 0 mm 2 mps 708 mmHg 53%
08:00 +24°C° 0 mm 2 mps 708 mmHg 48%
09:00 +28°C° 0 mm 2 mps 709 mmHg 40%
10:00 +31°C° 0 mm 2 mps 709 mmHg 31%
11:00 +35°C° 0 mm 2 mps 709 mmHg 22%
12:00 +35°C° 0 mm 2 mps 708 mmHg 23%
13:00 +36°C° 0 mm 3 mps 707 mmHg 25%
14:00 +36°C° 0 mm 3 mps 707 mmHg 26%
15:00 +36°C° 0 mm 4 mps 706 mmHg 28%
16:00 +36°C° 0 mm 4 mps 706 mmHg 31%
17:00 +36°C° 0 mm 4 mps 705 mmHg 33%
18:00 +33°C° 0 mm 3 mps 705 mmHg 40%
19:00 +30°C° 0 mm 3 mps 706 mmHg 47%
20:00 +28°C° 0 mm 3 mps 706 mmHg 53%
21:00 +27°C° 0 mm 2 mps 707 mmHg 58%
22:00 +25°C° 0 mm 2 mps 707 mmHg 62%
23:00 +24°C° 0 mm 1 mps 707 mmHg 66%

16 August, Sunday

Time Temperature Precipitation Wind Pressure Humidity
00:00 +23°C° 0 mm 1 mps 707 mmHg 68%
01:00 +23°C° 0 mm 1 mps 707 mmHg 69%
02:00 +21°C° 0 mm 2 mps 707 mmHg 70%
03:00 +21°C° 0.1 mm 1 mps 707 mmHg 71%
04:00 +21°C° 0.1 mm 1 mps 708 mmHg 72%
05:00 +21°C° 0.1 mm 1 mps 708 mmHg 73%
06:00 +21°C° 0.3 mm 1 mps 709 mmHg 70%
07:00 +22°C° 0.3 mm 1 mps 709 mmHg 68%
08:00 +22°C° 0.3 mm 1 mps 710 mmHg 65%
09:00 +23°C° 0 mm 1 mps 711 mmHg 61%
10:00 +23°C° 0 mm 2 mps 711 mmHg 58%
11:00 +23°C° 0 mm 2 mps 711 mmHg 54%
12:00 +24°C° 0 mm 2 mps 710 mmHg 49%
13:00 +25°C° 0 mm 2 mps 710 mmHg 45%
14:00 +25°C° 0 mm 2 mps 709 mmHg 40%
15:00 +25°C° 0 mm 2 mps 708 mmHg 40%
16:00 +25°C° 0 mm 2 mps 708 mmHg 40%
17:00 +25°C° 0 mm 2 mps 708 mmHg 40%
18:00 +24°C° 0 mm 2 mps 708 mmHg 44%
19:00 +22°C° 0 mm 1 mps 708 mmHg 48%
20:00 +21°C° 0 mm 1 mps 708 mmHg 53%
21:00 +20°C° 0 mm 1 mps 708 mmHg 55%
22:00 +19°C° 0 mm 1 mps 709 mmHg 56%
23:00 +16°C° 0 mm 0 mps 709 mmHg 58%

17 August, Monday

Time Temperature Precipitation Wind Pressure Humidity
00:00 +16°C° 0 mm 0 mps 708 mmHg 59%
01:00 +18°C° 0 mm 1 mps 708 mmHg 59%
02:00 +18°C° 0 mm 1 mps 707 mmHg 60%
03:00 +16°C° 0 mm 1 mps 707 mmHg 62%
04:00 +15°C° 0 mm 1 mps 707 mmHg 65%
05:00 +15°C° 0 mm 1 mps 707 mmHg 68%
06:00 +16°C° 0.1 mm 1 mps 708 mmHg 64%
07:00 +18°C° 0.1 mm 1 mps 708 mmHg 60%
08:00 +20°C° 0.1 mm 1 mps 709 mmHg 56%
09:00 +23°C° 0 mm 1 mps 709 mmHg 47%
10:00 +26°C° 0 mm 1 mps 710 mmHg 38%
11:00 +29°C° 0 mm 1 mps 710 mmHg 30%
12:00 +30°C° 0 mm 2 mps 709 mmHg 29%
13:00 +30°C° 0 mm 3 mps 708 mmHg 29%
14:00 +31°C° 0 mm 3 mps 707 mmHg 29%
15:00 +31°C° 0 mm 3 mps 707 mmHg 31%
16:00 +31°C° 0 mm 3 mps 706 mmHg 34%
17:00 +31°C° 0 mm 3 mps 706 mmHg 37%
18:00 +28°C° 0 mm 3 mps 706 mmHg 45%
19:00 +26°C° 0 mm 2 mps 706 mmHg 53%
20:00 +24°C° 0 mm 1 mps 706 mmHg 61%
21:00 +24°C° 0 mm 1 mps 707 mmHg 61%
22:00 +23°C° 0 mm 1 mps 707 mmHg 62%
23:00 +23°C° 0 mm 1 mps 707 mmHg 62%

18 August, Tuesday

Time Temperature Precipitation Wind Pressure Humidity
00:00 +23°C° 0 mm 1 mps 707 mmHg 61%
01:00 +23°C° 0 mm 1 mps 706 mmHg 60%
02:00 +22°C° 0 mm 1 mps 706 mmHg 60%
03:00 +21°C° 0 mm 1 mps 705 mmHg 63%
04:00 +20°C° 0 mm 1 mps 705 mmHg 66%
05:00 +17°C° 0 mm 0 mps 705 mmHg 69%
06:00 +18°C° 0 mm 0 mps 705 mmHg 63%
07:00 +19°C° 0 mm 0 mps 706 mmHg 58%
08:00 +21°C° 0 mm 0 mps 707 mmHg 52%
09:00 +26°C° 0 mm 1 mps 707 mmHg 46%
10:00 +29°C° 0 mm 1 mps 707 mmHg 40%
11:00 +32°C° 0 mm 1 mps 707 mmHg 33%
12:00 +35°C° 0 mm 2 mps 706 mmHg 31%
13:00 +36°C° 0 mm 3 mps 705 mmHg 29%
14:00 +38°C° 0 mm 4 mps 705 mmHg 26%
15:00 +37°C° 0 mm 4 mps 704 mmHg 27%
16:00 +37°C° 0 mm 5 mps 703 mmHg 27%
17:00 +36°C° 0 mm 6 mps 703 mmHg 27%
18:00 +34°C° 0 mm 5 mps 703 mmHg 34%
19:00 +30°C° 0 mm 4 mps 704 mmHg 40%
20:00 +27°C° 0 mm 2 mps 704 mmHg 47%
21:00 +26°C° 0 mm 2 mps 705 mmHg 51%
22:00 +26°C° 0 mm 2 mps 705 mmHg 55%
23:00 +25°C° 0 mm 3 mps 706 mmHg 59%
Show more